Thomasville, PA

11:22 AM EST on December 06, 2016 (GMT -0500)
York

Weather History for KTHV - April, 2014

Change the Weather History Date:

Tuesday, April 1, 2014

  Actual Average Record
Temperature  
Mean Temperature 46 °F -  
Max Temperature 63 °F 0 °F 79 °F (2016)
Min Temperature 30 °F - 23 °F (2015)
Degree Days  
Heating Degree Days 18    
Moisture  
Dew Point 31 °F    
Average Humidity 56    
Maximum Humidity 85    
Minimum Humidity 34    
Precipitation  
Precipitation 0.00 in - - ()
Sea Level Pressure  
Sea Level Pressure 30.08 in    
Wind  
Wind Speed 4 mph (South)    
Max Wind Speed 9 mph    
Max Gust Speed -    
Visibility 10 miles    
Events      
Averages and records for this station are not official NWS values.
T = Trace of Precipitation, MM = Missing Value Source: NWS Daily Summary

Daily Weather History Graph

Daily Weather History Graph

Search for Another Location

Airport or City:

Trip Planner

Search our weather history database for the weather conditions in past years. The results will help you decide how hot, cold, wet, or windy it might be!

Date:

Astronomy

Apr. 01, 2014 Rise Set
Actual Time 6:51 AM EDT 7:31 PM EDT
Civil Twilight 6:24 AM EDT 7:59 PM EDT
Nautical Twilight 5:52 AM EDT 8:31 PM EDT
Astronomical Twilight 5:18 AM EDT 9:04 PM EDT
Moon 7:52 AM EDT (4/1) 9:51 PM EDT (4/1)
Length of Visible Light 13h 34m
Length of Day
12h 40m
Waxing Crescent, 4% of the Moon is Illuminated
Apr 1
Waxing Crescent
Apr 7
First Quarter
Apr 15
Full
Apr 22
Last Quarter
Apr 29
New

Hourly Weather History & Observations

Time (EDT) Temp. Windchill Dew Point Humidity Pressure Visibility Wind Dir Wind Speed Gust Speed Precip Events Conditions
12:53 AM 46.0 °F 41.9 °F 27.0 °F 47% 30.14 in 10.0 mi North 8.1 mph - N/A   Clear
1:53 AM 44.1 °F 42.5 °F 28.0 °F 53% 30.14 in 10.0 mi Variable 3.5 mph - N/A   Clear
2:53 AM 36.0 °F - 28.0 °F 73% 30.13 in 10.0 mi Calm Calm - N/A   Clear
3:53 AM 33.1 °F - 28.0 °F 82% 30.13 in 10.0 mi Calm Calm - N/A   Clear
4:53 AM 33.1 °F - 27.0 °F 78% 30.14 in 10.0 mi Calm Calm - N/A   Clear
5:53 AM 30.0 °F - 26.1 °F 85% 30.15 in 10.0 mi Calm Calm - N/A   Clear
6:53 AM 30.0 °F - 26.1 °F 85% 30.16 in 10.0 mi Calm Calm - N/A   Clear
7:53 AM 34.0 °F - 28.9 °F 82% 30.17 in 10.0 mi Calm Calm - N/A   Clear
8:53 AM 41.0 °F 39.0 °F 30.0 °F 65% 30.18 in 10.0 mi WSW 3.5 mph - N/A   Clear
9:53 AM 46.0 °F - 30.0 °F 54% 30.18 in 10.0 mi Calm Calm - N/A   Clear
10:53 AM 48.9 °F - 30.9 °F 50% 30.15 in 10.0 mi SSW 5.8 mph - N/A   Clear
11:53 AM 51.1 °F - 30.9 °F 46% 30.13 in 10.0 mi SSW 4.6 mph - N/A   Clear
12:53 PM 53.1 °F - 32.0 °F 45% 30.09 in 10.0 mi Variable 4.6 mph - N/A   Clear
1:53 PM 55.0 °F - 30.9 °F 40% 30.06 in 10.0 mi Variable 3.5 mph - N/A   Clear
2:53 PM 55.9 °F - 32.0 °F 40% 30.04 in 10.0 mi Calm Calm - N/A   Overcast
3:53 PM 61.0 °F - 32.0 °F 34% 29.99 in 10.0 mi SW 5.8 mph - N/A   Scattered Clouds
4:53 PM 62.1 °F - 34.0 °F 35% 29.97 in 10.0 mi South 5.8 mph - N/A   Clear
5:53 PM 63.0 °F - 34.0 °F 34% 29.96 in 10.0 mi South 3.5 mph - N/A   Clear
6:53 PM 62.1 °F - 35.1 °F 37% 29.99 in 10.0 mi SSW 5.8 mph - N/A   Clear
7:53 PM 57.0 °F - 36.0 °F 45% 29.99 in 10.0 mi SSE 8.1 mph - N/A   Clear
8:53 PM 54.0 °F - 36.0 °F 51% 30.01 in 10.0 mi South 4.6 mph - N/A   Clear
9:53 PM 52.0 °F - 35.1 °F 53% 30.01 in 10.0 mi SSE 9.2 mph - N/A   Clear
10:53 PM 46.9 °F - 35.1 °F 63% 30.00 in 10.0 mi South 3.5 mph - N/A   Clear
11:53 PM 45.0 °F 43.5 °F 36.0 °F 71% 30.00 in 10.0 mi SE 3.5 mph - N/A   Clear